FENGYUN 1C DEB

Satellite information

Favourite Embed

Satellite Type and Status

DEBRISDECAYED

Key statistics

Satellite FENGYUN 1C DEB at a glance.

Uptime

9504

Days in orbit

Revolutions

≈ 16.2

Per day

Orbit

SSO

Sun Synchronous Orbit

Inclination

98.9

Latest

Satellite identification and parameters

Extended collection of information and parameters for FENGYUN 1C DEB.

Object identification

Identified? True

Debris? True

Object name: FENGYUN 1C DEB

International designator: 1999-025UX

Object number (NORAD): 30190

Object ID (CCSDS): 30190

Country: PEOPLES REPUBLIC OF CHINA (PRC)

Current information (Y/N): Y

RCS size: SMALL

Orbital parameters

Decay date: May 17, 2025

Period: 88.846 minutes

Inclination: 98.9013 deg

SMA: 6595.576 km

Apoapsis: 226.147 km

Periapsis: 208.735 km

RAAN: 85.1308 deg

Eccentricy: 0.00132

Argument of periapsis: 206.3393 deg

Mean anomaly: 153.7222 deg

Mean motion: 16.20778415 rev/day

Mean motion (dot): 0.09278514 rev/day2

B* drag term: 0.0045662 1/REarth

Two-line elements (TLE)

Creation date: May 12, 2025, 7:41 p.m.

Reference frame: TEME

Reference center: EARTH

Epoch: May 12, 2025, 12:10 p.m. UTC

TLE line 0: 0 FENGYUN 1C DEB

TLE line 1: 1 30190U 99025UX 25132.50732664 .09278514 33752-5 45662-2 0 9990

TLE line 2: 2 30190 98.9013 85.1308 0013200 206.3393 153.7222 16.20778415978638

Live tracking on map

Satellite FENGYUN 1C DEB has decayed and is no longer in orbit. No tracking available.

In-orbit conjunctions

Satellite FENGYUN 1C DEB has decayed and is no longer in orbit. No conjunctions available.

Associated space launch

Chinese polar orbiting meteorological satellite

FENGYUN 1C DEB was lifted into orbit during the mission ‘Long March 4B | Feng Yun 1C’, on board a Long March 4B space rocket.

The launch took place on May 10, 1999, 1:33 a.m. from Launch Complex 7.

For more information about the launch, click the button.

Launch to space Long March 4B | Feng Yun 1C
Long March 4B | Feng Yun 1C

Agency: N/A

Status: Launch Successful

Launch date: May 10, 1999, 1:33 a.m. UTC

Rocket: Long March 4B

Launch pad: Launch Complex 7

Location: Taiyuan Satellite Launch Center, People's Republic of China

...

Latest news about this satellite

There are no fresh news available about this satellite. Check back as we update our databases every day.


Newsletter sign-up

Weekly statistics, charts and insights to help you stay on top of the space industry.